Theta_e
305 307 307 306 306 306 306 306 307 308 310 311 313 313 313 313 313 312 313 316 317 316 316 317 317 317 318 319 319 319 319 320 319 320 322 329 334 336 339 341 342 341 336 339 346 347 346 345 345 344 345 345 345 345 343 343 342 341 341 339 339 339 338 338 336 335 337 338 337 334 333 333 334 335 335 334 332 333 334 334 334 335 334 334 333 332
304 306 306 306 306 305 305 306 307 307 308 309 311 312 313 313 313 313 312 314 316 316 316 317 317 317 317 319 319 318 320 320 318 319 320 326 333 337 340 342 343 341 342 347 349 349 348 347 347 346 346 346 345 345 344 343 342 342 341 340 340 339 338 339 336 335 336 337 336 333 333 333 334 335 334 332 331 334 335 335 335 335 334 334 333 332
304 304 305 305 305 306 306 306 306 307 307 308 309 310 312 313 313 314 313 314 315 315 316 317 317 317 318 318 320 319 319 320 318 319 320 323 329 335 340 344 347 348 349 351 349 349 348 347 347 347 346 345 344 344 343 343 343 342 341 340 340 339 339 339 337 335 334 335 335 332 332 333 334 335 334 332 333 335 336 336 336 335 334 334 332 332
304 304 304 304 305 305 306 306 306 306 307 308 308 309 310 311 312 314 314 313 314 315 316 317 316 317 318 318 319 318 317 319 319 319 320 321 325 332 339 344 348 350 350 351 349 349 348 348 347 347 346 345 345 345 343 343 343 342 341 341 340 339 339 339 337 336 334 334 334 333 332 334 335 335 334 334 336 336 336 337 335 334 334 333 332 333
304 304 304 304 305 305 305 306 306 306 307 307 308 308 309 311 312 313 313 313 314 315 315 316 315 315 317 318 318 318 317 318 319 319 320 321 323 327 334 340 346 350 350 350 350 349 348 348 347 347 346 346 344 344 343 342 342 342 342 341 340 340 339 339 338 335 334 333 333 334 334 335 336 336 335 336 336 336 337 336 335 334 334 333 333 333
303 304 304 304 305 306 305 306 306 306 307 307 308 309 309 310 311 312 312 313 313 314 315 315 313 314 317 317 318 318 318 318 319 319 320 321 322 324 327 335 344 349 350 349 350 349 349 348 347 347 346 345 343 342 342 341 342 342 342 340 340 340 340 339 337 334 333 333 332 333 335 336 337 337 336 336 336 336 336 336 335 334 334 333 333 333
304 304 304 304 304 305 305 306 306 306 307 307 308 309 309 310 310 310 311 312 313 313 314 315 314 314 315 316 317 318 318 318 318 320 321 320 322 324 324 332 342 348 349 349 349 349 349 348 347 347 346 343 340 341 342 342 342 342 342 340 339 339 340 340 337 333 331 331 331 334 336 337 337 337 336 336 336 336 336 335 335 334 334 333 333 333
304 304 304 304 303 303 304 305 306 307 306 307 308 309 310 310 310 310 310 310 312 313 313 313 313 313 313 316 318 318 318 318 318 320 321 321 322 324 325 331 340 346 348 348 350 349 348 346 345 344 342 339 338 341 343 343 343 342 341 339 339 339 340 340 338 332 329 329 330 334 337 338 337 337 336 336 336 336 335 334 335 335 334 333 333 333
304 304 303 303 303 303 303 304 306 307 307 307 308 309 309 310 310 310 310 310 310 311 312 312 313 313 314 317 320 318 318 318 319 319 319 321 322 323 326 331 337 342 344 346 347 347 346 344 341 338 337 336 338 341 342 342 342 342 341 339 338 339 339 341 339 333 328 328 329 333 337 338 337 337 336 336 336 336 335 335 335 335 334 333 333 333
303 304 303 303 303 303 303 304 305 307 308 308 308 309 309 309 310 310 310 310 310 311 312 312 312 313 313 316 318 316 317 317 318 319 318 320 321 323 327 331 335 339 343 344 343 342 342 340 337 334 336 338 340 341 341 342 343 342 341 339 339 339 338 340 339 334 329 327 329 333 337 338 338 337 337 336 336 335 335 335 335 334 333 333 333 333
303 304 304 304 304 304 304 304 305 306 308 309 308 308 309 309 309 310 311 310 311 311 311 312 312 313 313 315 316 316 317 317 318 319 319 319 320 322 326 332 337 340 343 344 343 341 339 338 337 338 341 342 342 343 343 343 343 342 341 340 339 339 339 340 340 337 331 328 329 333 336 338 338 337 337 336 336 335 335 335 335 334 333 332 332 332
303 303 303 304 304 305 305 304 304 305 306 309 309 308 309 310 309 310 311 311 312 311 311 312 312 312 313 314 316 317 318 318 318 319 320 320 319 320 323 330 336 338 340 343 344 343 343 344 344 344 344 344 343 343 343 343 343 343 342 340 340 339 339 340 340 339 335 329 329 333 337 338 338 337 337 337 336 335 335 335 335 333 332 332 332 332
304 303 303 304 304 304 304 304 303 304 305 307 308 310 310 310 311 311 311 312 313 312 311 312 312 313 313 315 317 318 317 319 318 318 319 319 317 318 320 325 332 337 339 343 344 344 345 345 345 345 344 343 342 342 343 343 343 343 342 341 340 340 340 340 340 339 336 331 330 333 337 338 338 337 338 337 336 336 336 335 334 332 331 331 332 332
304 304 303 303 304 304 304 303 303 304 306 307 307 309 310 309 311 312 312 312 313 312 312 311 312 314 313 315 318 317 317 318 317 317 318 318 317 318 320 321 326 334 339 341 343 343 345 345 344 344 343 341 339 341 343 343 343 343 342 341 339 340 340 340 340 339 337 333 331 334 337 338 338 338 337 337 336 336 336 335 333 331 330 330 331 331
304 305 305 303 303 304 304 303 304 304 305 307 307 308 310 310 311 312 313 314 313 314 313 312 316 317 315 321 324 317 316 317 317 318 317 318 318 318 320 321 325 333 338 340 342 342 343 343 343 343 341 338 339 342 343 343 343 343 342 339 339 340 341 340 340 339 339 336 333 335 338 339 338 338 337 337 336 336 335 334 332 329 329 329 331 331
303 304 305 304 304 304 305 305 305 305 307 310 308 308 310 310 311 314 317 317 315 316 315 313 317 321 319 325 326 318 317 316 316 319 317 317 319 318 319 321 325 332 337 339 341 342 341 341 342 341 339 339 341 342 343 343 343 343 341 339 338 340 341 341 340 340 340 338 336 336 338 339 339 338 337 337 336 336 335 333 330 329 329 330 331 332
304 304 306 306 306 306 306 307 306 307 311 315 312 310 310 310 312 314 318 319 317 317 317 313 315 318 315 320 323 318 318 317 317 318 317 317 317 318 319 321 326 331 336 339 341 341 342 341 341 341 340 340 341 342 343 343 343 342 339 338 338 340 342 341 340 341 340 339 338 337 338 339 339 338 337 337 336 335 334 331 330 330 331 332 332 332
307 306 307 307 306 307 307 309 308 307 310 313 312 312 312 312 313 313 316 320 318 318 318 313 315 316 314 323 328 321 317 317 318 318 318 318 316 317 320 322 326 332 335 338 341 341 340 341 341 341 340 339 339 341 342 343 342 341 339 337 338 340 341 341 341 341 340 340 338 338 338 338 339 338 337 336 336 335 333 331 331 331 331 331 331 331
309 305 308 307 305 308 309 309 311 308 307 310 311 312 312 313 314 313 315 319 319 319 318 315 315 314 314 322 326 320 318 318 318 317 317 318 317 317 319 323 327 333 336 338 342 342 341 341 341 341 339 339 340 342 342 342 342 340 339 337 338 339 340 340 341 341 340 340 339 338 337 338 338 337 336 336 335 333 332 332 332 331 331 330 330 330
313 310 313 312 308 311 312 310 312 311 309 310 311 311 312 313 314 313 315 318 321 323 323 318 316 314 315 322 322 320 322 320 317 318 319 318 317 318 319 323 329 334 337 339 341 342 342 341 341 340 338 339 341 343 343 342 342 340 339 338 338 340 341 341 341 341 340 340 339 338 338 338 338 337 336 335 334 333 333 332 332 332 331 330 330 329
316 312 314 313 309 312 315 313 312 311 311 312 313 312 313 313 313 314 315 315 318 325 326 321 319 319 320 325 326 321 322 323 320 321 322 318 317 319 322 323 328 333 336 339 341 341 341 341 342 342 340 340 342 343 343 342 341 340 339 338 338 340 340 341 341 340 340 339 339 338 338 338 337 336 336 335 333 333 333 333 332 332 331 330 329 328
316 312 312 314 312 313 314 312 311 311 311 314 315 314 313 314 314 314 316 315 313 320 325 322 322 327 324 322 325 322 321 323 322 322 326 320 315 320 324 324 327 332 335 339 340 340 341 342 343 343 343 343 343 343 343 342 341 340 339 338 338 339 340 340 340 340 340 339 338 338 338 338 337 336 335 334 333 333 333 333 332 331 331 330 329 328
314 313 312 312 311 311 310 309 310 311 312 312 313 313 313 314 314 313 318 323 320 318 322 320 319 326 330 324 322 322 323 321 318 320 324 320 315 319 323 324 327 330 333 338 339 341 342 343 343 343 343 343 343 343 342 341 341 340 339 338 338 339 340 341 340 340 339 339 338 338 339 338 336 335 335 334 333 333 332 332 331 331 331 330 328 327
312 313 313 312 312 311 311 310 311 313 315 316 316 315 313 313 314 314 317 323 325 322 321 320 318 326 337 333 322 319 321 319 316 317 319 318 317 319 321 323 327 329 332 336 339 342 343 343 343 343 343 343 342 341 340 340 341 340 339 338 337 339 341 341 341 340 339 339 338 339 338 337 336 335 335 334 334 333 331 330 330 330 330 329 328 327
312 313 312 312 314 313 312 312 313 317 320 319 319 317 314 313 313 314 315 317 322 325 320 319 322 325 328 327 324 324 323 320 319 317 317 318 320 321 322 323 325 328 331 335 338 343 343 342 343 342 342 342 340 340 339 340 341 340 339 338 338 339 341 341 340 339 339 339 339 339 338 336 336 335 335 335 334 333 331 330 330 330 329 328 327 327
312 313 312 312 315 315 314 315 317 319 319 316 316 315 313 313 312 314 316 315 320 324 320 320 324 323 321 321 324 326 326 328 326 321 319 321 323 323 323 324 325 328 332 335 337 341 341 341 342 341 340 339 338 339 340 340 341 340 339 338 338 339 340 341 340 339 339 339 339 339 338 336 336 335 335 335 335 333 330 330 330 330 329 328 328 327
312 314 313 313 315 316 317 318 316 317 317 316 316 314 313 314 313 315 316 315 319 321 320 324 325 322 322 324 326 328 328 333 336 331 326 323 324 325 325 325 327 330 334 336 336 338 339 340 340 339 338 338 339 340 340 340 340 340 339 338 338 340 340 340 340 340 339 339 339 338 337 336 335 335 335 335 334 332 330 330 330 329 328 328 328 327
313 315 314 312 314 315 316 315 313 314 316 315 314 314 315 314 314 316 316 317 322 321 322 330 330 324 326 329 329 329 328 330 335 336 332 326 324 327 326 326 330 333 336 338 337 337 339 339 339 338 339 339 340 341 340 340 341 340 339 338 338 340 340 340 340 339 339 339 339 338 337 336 335 335 336 335 334 332 330 330 330 329 329 328 328 327
314 317 315 312 313 314 314 314 313 314 314 314 314 315 317 316 316 318 317 318 322 323 327 333 328 323 330 334 332 330 327 326 328 330 331 329 325 327 328 329 333 337 338 338 338 339 338 338 339 339 340 341 341 341 341 341 341 340 339 339 338 339 340 340 339 339 339 339 339 338 337 336 336 336 336 336 334 332 331 331 330 329 329 328 328 327
314 318 317 314 315 316 315 314 315 315 315 315 315 315 316 317 317 318 318 318 320 323 329 331 323 324 333 336 331 327 324 323 322 324 329 331 329 328 331 334 335 338 340 339 339 339 338 339 340 340 341 341 341 341 341 341 341 340 339 339 339 339 339 339 339 339 339 339 339 338 337 336 337 337 336 335 334 332 331 331 330 329 329 328 327 326
312 315 317 318 318 318 317 316 316 316 316 317 318 317 317 317 317 318 320 319 318 320 323 324 323 329 339 340 331 324 321 322 323 324 326 332 334 334 335 337 338 339 340 340 340 340 340 340 341 341 342 341 341 341 341 341 340 340 339 339 338 339 338 338 339 339 339 339 339 338 337 337 337 337 336 335 333 332 331 331 330 329 329 328 327 326
311 314 320 321 319 319 319 317 317 317 317 318 320 319 317 317 317 318 319 317 318 320 323 324 325 329 336 338 332 326 326 329 329 325 324 328 336 339 338 339 339 340 340 341 341 341 341 341 341 341 341 341 341 341 340 341 340 340 339 339 338 338 338 338 338 339 339 339 338 338 336 336 337 336 336 334 333 332 331 331 330 329 329 328 327 326
315 319 323 322 320 321 320 317 318 319 318 320 322 319 317 317 319 319 320 320 320 322 324 325 327 329 331 332 330 330 334 335 330 326 323 324 331 338 341 340 340 341 341 341 341 341 341 341 340 341 341 341 341 340 339 340 340 340 339 338 337 337 337 337 337 338 339 338 338 338 336 336 337 336 336 334 333 333 332 331 330 329 329 328 327 326
317 319 322 323 322 322 320 319 321 321 320 323 323 319 316 318 320 320 322 324 322 321 322 323 325 326 327 328 328 330 333 331 325 322 322 325 329 335 341 341 340 341 341 341 341 341 341 341 341 341 341 340 339 338 339 340 340 340 338 337 336 336 336 337 337 338 339 338 339 338 336 336 337 336 336 334 333 333 332 331 330 329 328 328 327 326
317 318 321 322 321 320 321 321 324 324 322 321 320 318 318 319 319 321 325 325 322 321 322 321 320 320 322 324 324 324 325 323 321 320 321 326 330 333 340 342 341 341 341 341 341 341 341 341 341 341 341 340 340 340 340 340 340 339 337 336 335 335 335 337 338 339 339 339 339 338 337 336 336 336 335 334 333 332 331 330 329 328 328 328 327 326
317 319 322 320 318 320 321 320 322 322 320 319 320 320 322 322 322 326 330 328 323 323 324 322 320 319 319 319 319 320 321 320 320 320 319 322 325 329 338 342 341 342 342 341 341 341 341 341 340 340 341 340 340 341 340 340 339 338 336 335 334 335 335 336 337 339 339 339 339 338 337 336 336 336 335 334 333 332 330 330 329 328 328 328 327 326
318 319 323 321 317 319 321 320 320 321 320 323 324 320 320 322 321 323 328 328 325 324 324 325 324 324 321 318 316 319 319 318 320 322 319 318 321 327 335 338 337 339 340 338 338 338 338 339 338 339 340 340 341 341 340 339 339 337 336 336 335 335 336 336 338 339 339 338 338 338 337 337 337 336 334 332 332 331 330 329 328 328 328 328 326 326
316 315 321 323 318 318 321 321 321 321 323 325 324 318 316 319 320 321 324 327 327 324 323 325 327 327 325 319 315 316 317 317 321 324 320 317 319 324 332 335 334 334 334 333 333 334 336 337 338 338 340 341 340 340 339 339 339 338 337 336 335 335 336 336 337 338 338 338 338 338 337 337 336 335 332 331 331 330 329 328 327 328 329 328 327 326
317 317 323 325 320 319 322 322 321 322 323 323 322 319 316 317 319 319 320 325 326 323 321 323 325 327 326 323 318 316 316 319 323 322 318 316 317 319 325 331 332 331 331 330 330 331 332 334 336 339 340 339 339 339 339 339 339 338 337 336 335 335 335 336 336 337 337 337 338 338 337 336 335 333 332 331 331 330 328 327 327 328 328 327 327 327
316 317 322 323 321 321 322 322 321 321 323 323 320 319 318 317 318 318 320 324 323 321 321 323 324 325 326 325 323 318 316 319 321 319 316 316 318 317 318 323 326 327 328 330 330 330 330 332 336 338 339 339 339 339 340 340 339 339 338 337 336 335 334 334 335 337 337 336 337 336 335 333 333 332 331 331 330 329 328 328 328 328 328 327 327 326
316 316 318 321 322 322 320 320 320 321 323 323 320 318 318 319 319 319 323 325 322 320 321 322 323 323 324 325 325 322 320 321 319 317 316 317 318 318 317 320 323 325 326 327 328 329 330 332 335 337 338 339 339 340 340 340 339 339 338 337 336 335 334 334 335 336 336 336 336 334 332 332 332 332 330 330 330 330 329 329 329 328 328 327 327 326
316 316 317 319 321 322 321 320 320 321 321 320 319 318 319 322 322 322 323 323 321 321 323 322 322 323 323 324 326 326 326 325 320 317 317 319 322 324 322 321 323 324 325 326 327 328 330 331 333 337 339 340 340 340 340 340 339 339 339 338 337 336 335 334 334 335 336 336 335 332 331 331 332 331 330 330 331 330 329 329 329 328 327 327 326 325
315 316 317 317 318 320 321 321 321 320 319 317 319 320 321 324 324 322 322 323 322 321 321 321 322 323 322 324 327 327 328 328 326 324 323 324 326 327 327 327 328 327 327 327 328 331 334 335 336 338 339 340 340 340 340 340 339 339 338 338 337 336 336 335 335 335 336 336 335 332 331 331 331 331 331 331 330 330 330 329 328 327 326 325 325 325
316 317 319 319 317 318 319 320 319 319 318 317 319 321 321 323 323 322 321 321 321 320 321 321 322 322 323 325 327 328 327 328 330 331 330 330 329 328 328 329 330 330 330 329 329 330 333 336 338 339 339 340 340 340 340 340 340 339 339 338 337 336 336 336 336 336 336 336 335 333 330 330 330 331 330 330 330 330 329 328 327 326 325 324 324 324
319 319 319 319 318 317 318 319 319 318 318 318 319 320 320 320 321 322 321 320 320 321 321 321 321 322 323 325 327 328 327 327 329 331 331 332 331 330 329 329 328 329 330 330 331 331 332 335 337 338 338 339 339 340 340 340 339 339 339 338 337 336 336 336 336 336 335 335 335 334 332 329 329 330 330 329 329 329 328 328 327 326 324 323 323 323
317 316 317 319 320 318 317 318 318 318 318 320 320 319 320 320 321 321 321 320 319 320 320 320 321 322 324 326 329 329 328 328 328 329 330 331 332 332 332 332 331 330 329 329 331 333 334 334 336 337 336 335 336 338 339 339 339 339 338 338 336 336 336 337 336 335 335 334 334 334 332 330 329 330 330 329 329 328 328 328 328 326 325 324 323 323
317 315 318 321 320 319 320 322 321 319 319 320 319 318 318 320 321 321 321 320 319 319 320 321 321 322 323 326 329 330 329 329 329 328 329 330 331 331 332 332 332 332 331 331 332 333 335 335 335 336 334 332 333 334 335 336 337 337 337 336 336 335 336 336 335 335 334 334 334 333 332 331 330 330 330 329 328 328 328 328 327 325 325 324 324 323
318 316 319 321 319 318 322 323 320 318 319 319 318 318 318 319 321 321 321 321 319 318 319 320 321 322 323 326 328 329 329 330 329 329 329 328 329 330 331 331 331 331 331 332 333 333 335 335 334 334 333 332 331 332 331 332 334 335 335 336 336 335 335 335 335 334 334 334 333 332 331 331 331 330 330 329 328 328 327 326 326 325 325 325 325 325
317 317 318 319 318 319 323 323 319 319 320 319 318 319 319 320 321 321 321 321 320 319 319 320 321 323 324 325 328 328 328 328 329 329 330 329 329 329 329 330 331 331 331 332 333 333 334 334 333 332 332 332 330 330 330 331 331 333 335 335 335 334 334 335 334 333 333 332 331 330 330 330 330 330 329 329 328 327 327 326 326 326 326 325 325 326
318 321 320 319 319 320 321 321 320 321 321 319 318 320 321 320 320 320 320 320 320 320 321 320 321 323 324 326 327 327 326 327 328 328 329 329 329 329 329 329 330 330 332 332 332 333 333 333 333 332 331 330 330 330 330 329 329 331 333 334 334 334 334 334 333 332 331 331 330 330 330 330 329 329 329 328 327 327 326 326 326 325 325 324 325 325
318 321 321 320 320 319 318 318 319 319 320 320 319 320 320 319 319 319 319 320 320 320 321 321 321 322 324 326 327 326 325 326 327 328 328 328 328 328 329 329 330 331 332 332 332 333 332 332 332 331 330 330 330 330 329 328 328 329 330 332 333 333 333 333 332 331 331 330 330 330 330 330 329 329 328 327 327 326 326 326 325 324 324 324 324 324
Wind_Speed
4 4 3 5 6 8 8 8 11 11 9 8 7 6 6 7 8 8 9 10 10 11 12 14 16 17 15 13 11 16 18 13 15 16 15 25 30 34 38 40 42 45 47 46 45 47 46 43 39 37 36 34 33 32 32 32 32 31 29 29 29 29 29 29 31 35 34 32 31 30 28 26 26 26 25 25 25 24 21 19 18 17 16 15 14 14
3 3 5 8 9 9 8 7 8 10 10 9 8 7 7 7 7 7 9 11 10 8 11 15 18 20 17 11 11 17 15 11 14 14 14 25 30 32 35 37 43 45 43 43 45 48 47 44 41 39 38 36 35 35 34 34 33 33 32 31 31 31 31 30 32 35 36 34 32 31 29 28 28 27 26 26 26 24 21 19 18 17 16 15 14 14
3 4 9 11 10 8 8 8 9 10 9 8 8 7 7 5 5 9 10 11 12 7 7 14 19 20 18 13 11 15 15 17 24 23 20 26 31 33 34 34 36 35 35 40 46 48 47 45 43 41 39 37 35 35 35 35 34 34 34 33 32 32 31 31 32 34 36 34 32 30 29 28 29 27 26 26 25 23 22 20 18 17 17 15 15 15
3 6 10 10 8 8 9 10 10 10 7 6 7 7 8 7 5 5 8 9 10 10 9 11 14 15 14 13 11 14 19 24 31 32 30 29 32 38 42 40 38 35 35 40 44 47 47 45 44 43 41 38 36 35 36 36 36 36 36 34 33 32 31 31 32 33 35 34 31 29 29 29 29 27 27 26 25 24 22 20 19 18 17 16 16 17
6 9 10 8 7 9 11 11 10 8 6 7 9 8 9 10 8 6 7 9 7 10 15 12 10 9 10 12 10 13 18 23 30 30 28 30 34 40 44 42 42 42 43 44 45 47 48 47 46 44 42 40 38 37 37 37 38 38 36 34 33 33 32 32 33 33 34 34 32 31 32 31 30 29 28 28 27 25 24 21 20 19 18 18 18 18
8 12 11 8 8 10 11 11 11 8 5 7 9 10 11 12 12 10 11 10 6 6 13 14 12 9 8 12 13 12 13 16 21 20 21 28 31 34 41 41 40 43 46 49 51 51 50 49 47 45 44 41 38 38 38 37 38 38 35 34 34 34 33 33 33 34 34 35 34 34 35 35 33 32 32 31 29 27 25 23 21 19 19 19 19 19
7 11 9 8 9 10 10 11 11 10 6 6 7 9 12 13 14 14 13 8 3 5 8 12 13 10 7 9 12 13 14 15 16 13 17 27 28 30 40 44 43 43 45 48 52 53 52 50 48 48 46 42 39 39 40 39 38 37 35 34 35 35 34 34 34 34 34 35 35 35 35 35 34 34 33 30 28 27 25 23 21 20 20 20 19 19
4 7 7 8 9 8 8 8 10 10 7 6 8 9 11 12 14 16 14 10 5 7 10 10 10 10 8 7 9 13 16 17 17 14 14 21 28 33 39 43 46 48 48 48 51 53 52 50 49 48 46 42 40 41 43 42 40 38 36 34 34 35 35 34 34 35 35 36 36 35 34 34 33 32 31 29 28 27 24 22 22 22 21 21 20 19
2 6 7 7 8 6 6 8 9 10 8 8 9 10 11 11 12 12 11 9 8 7 9 10 8 8 8 6 7 12 16 17 18 19 16 17 25 32 37 43 47 51 52 52 53 53 52 51 49 46 44 42 42 44 45 44 42 39 36 34 34 34 35 35 35 35 35 36 36 35 34 33 33 31 29 28 28 26 24 23 23 23 22 22 21 20
4 8 9 5 5 4 6 9 9 10 10 10 11 10 10 10 11 11 9 8 8 8 10 11 8 6 6 6 8 10 13 15 15 17 16 16 23 29 36 44 48 50 52 53 54 54 53 52 48 46 46 46 46 47 46 45 43 39 36 35 34 35 35 35 35 35 36 36 36 35 34 34 33 32 30 29 28 26 25 24 24 24 24 23 22 21
7 11 11 6 6 7 9 11 10 10 12 12 10 10 8 7 8 8 6 7 8 7 10 15 13 8 6 5 8 10 12 16 14 11 11 13 21 28 34 42 46 49 51 52 53 55 54 53 50 49 49 48 48 48 48 47 43 39 36 35 35 35 36 36 36 35 36 37 37 36 35 34 33 32 31 31 30 27 26 25 25 25 26 24 23 22
7 10 8 8 12 12 10 10 12 13 13 11 7 7 6 5 5 5 5 6 7 7 9 13 14 11 8 6 7 11 14 17 15 11 10 11 18 27 31 36 42 47 51 52 53 54 54 52 50 49 48 48 48 49 49 48 44 40 37 35 36 36 37 37 36 36 37 38 37 36 36 35 33 32 31 32 31 29 27 27 27 27 27 25 24 24
5 7 6 9 15 13 7 6 9 10 9 9 6 5 5 4 4 5 6 5 6 7 9 11 11 10 9 7 9 15 15 14 14 15 16 14 18 27 33 35 40 45 49 51 52 54 53 51 51 50 49 49 49 50 50 49 45 41 38 36 37 38 39 38 36 36 38 38 38 38 36 35 33 32 32 31 30 28 27 27 27 28 28 27 26 24
4 5 7 7 9 11 9 6 6 6 4 6 6 5 5 5 5 5 5 5 5 7 12 14 11 7 7 7 10 16 15 13 15 20 24 24 26 32 37 40 43 45 48 50 52 54 54 53 53 53 52 52 52 52 51 49 45 41 38 38 39 40 40 39 38 38 38 38 38 38 37 35 34 33 32 31 29 27 27 27 26 27 27 26 25 24
3 5 6 6 4 6 9 8 8 7 5 5 6 6 6 5 4 4 4 4 5 6 11 13 9 6 6 7 10 14 15 17 21 23 26 29 33 37 39 41 42 44 47 50 53 54 55 57 56 55 55 55 55 53 50 48 46 42 39 38 40 41 42 40 39 39 38 38 39 38 37 35 34 33 31 31 29 27 27 26 25 25 26 26 24 24
4 6 5 6 6 4 5 7 8 7 5 5 5 5 6 6 4 4 5 4 4 5 8 8 6 5 6 7 8 11 13 16 21 24 24 26 31 34 35 37 41 44 47 49 51 54 57 58 59 59 58 56 54 51 50 49 46 42 39 39 40 42 43 42 41 41 39 38 39 39 37 36 34 33 31 31 29 28 27 25 23 23 25 25 24 24
4 5 3 3 6 6 6 8 7 6 4 3 3 4 6 6 5 4 5 3 1 4 6 5 4 5 6 8 8 8 13 14 15 20 21 23 28 30 31 35 39 43 47 48 50 53 56 59 60 60 59 55 53 51 50 49 45 41 39 39 41 44 44 43 42 42 40 39 39 39 37 36 35 33 32 32 30 28 27 25 22 22 24 25 25 25
3 5 5 4 7 8 8 9 8 9 8 4 3 3 2 3 4 2 3 2 1 2 4 6 7 5 5 7 6 5 12 15 15 16 17 22 25 26 31 35 37 42 46 47 50 53 57 60 60 59 57 55 53 52 50 48 44 41 39 39 42 45 46 45 44 44 42 40 40 39 37 36 36 34 33 32 30 28 27 26 23 22 23 25 25 25
2 3 6 5 7 7 7 6 5 7 9 8 4 2 2 1 2 2 2 2 2 2 3 5 8 7 5 5 6 6 10 15 17 16 18 20 20 22 30 35 37 42 45 45 47 51 55 58 58 58 56 53 51 50 49 46 44 42 39 40 42 45 46 46 45 44 42 41 40 39 37 36 36 35 33 32 29 28 28 27 25 23 23 25 25 24
2 1 4 4 3 2 3 2 2 4 4 3 2 2 1 2 2 2 2 2 2 1 3 3 5 6 6 5 7 9 9 12 15 15 16 18 20 25 32 35 38 43 45 45 47 51 55 58 58 57 56 54 51 50 49 47 45 42 40 41 43 45 46 45 45 45 43 41 41 39 37 36 36 34 33 31 29 28 28 27 25 24 24 24 24 23
2 2 2 4 3 2 1 3 3 3 2 1 2 2 2 1 1 2 3 3 3 2 1 3 4 5 5 5 7 10 10 10 11 12 12 12 19 29 34 38 42 44 45 47 49 53 57 57 56 54 53 52 51 50 50 48 45 43 42 42 44 46 47 47 46 45 43 42 41 39 37 37 36 34 32 30 28 28 28 27 26 25 24 24 24 23
1 1 1 4 4 1 4 5 2 1 2 3 4 4 3 3 2 3 2 3 5 4 2 3 5 6 6 5 7 10 9 10 10 10 9 10 19 29 34 40 44 45 46 48 52 55 56 55 53 52 51 50 50 50 50 48 46 45 44 43 44 46 47 48 47 45 44 42 40 39 37 37 35 34 32 30 29 28 28 28 27 25 24 25 24 23
2 2 0 3 5 6 11 11 8 7 6 4 3 2 2 1 2 2 2 2 4 3 3 3 5 7 7 6 9 10 9 10 11 10 8 12 20 28 34 40 43 45 48 50 53 55 55 54 52 52 51 50 50 51 50 48 47 47 45 43 44 46 48 48 47 45 43 41 39 38 36 36 35 34 33 31 30 30 29 29 27 26 25 25 24 21
3 2 1 3 5 7 11 10 8 8 3 2 3 1 3 1 2 3 3 2 3 2 2 2 5 8 7 3 4 12 13 11 10 12 13 14 19 24 32 39 42 46 50 52 53 53 52 52 52 51 52 51 51 51 50 49 50 48 46 44 45 47 48 47 46 44 42 40 39 37 36 36 36 35 33 32 32 32 31 29 27 27 26 25 23 21
2 2 2 2 3 2 1 1 3 5 1 2 3 2 3 4 4 3 4 3 4 3 3 2 5 8 6 6 6 9 13 12 10 13 18 17 19 24 30 38 43 46 48 49 49 48 49 51 52 52 53 52 52 51 51 51 51 49 47 46 45 47 47 46 45 43 42 41 40 38 37 36 36 36 35 34 33 32 30 29 28 28 27 25 23 21
4 2 3 2 2 3 3 3 3 3 2 2 2 1 1 5 5 3 1 3 5 4 2 3 6 8 9 9 10 12 10 9 10 11 15 18 22 27 29 34 40 42 45 47 47 49 51 53 53 53 53 52 52 52 52 52 50 49 48 46 46 46 46 45 44 42 41 41 40 39 37 37 37 38 36 35 34 32 30 29 29 29 27 25 24 23
3 2 4 4 4 4 4 4 4 3 2 3 3 2 2 6 8 3 1 3 6 4 4 6 6 7 11 11 10 13 12 8 8 8 10 13 20 26 29 32 38 41 44 47 50 51 51 51 51 52 51 51 52 52 52 51 50 49 48 47 47 46 44 43 43 42 41 40 39 39 38 38 38 38 37 37 35 33 31 30 30 30 28 26 25 24
2 2 5 6 7 7 5 5 6 5 4 4 3 2 3 6 7 3 3 6 6 4 6 8 4 4 8 9 9 12 13 9 8 7 8 16 21 25 28 32 36 39 43 47 49 50 50 49 50 50 51 51 51 51 51 50 49 48 48 48 47 46 45 43 42 41 40 40 39 39 38 38 38 39 39 38 36 33 32 31 30 30 28 26 25 25
1 1 5 6 7 9 7 6 7 4 4 4 4 4 5 5 5 3 6 9 7 5 6 7 6 6 7 7 8 9 11 8 9 11 6 16 23 23 26 31 33 36 41 45 47 49 50 50 50 50 51 50 49 49 49 48 48 48 48 48 47 46 45 43 42 41 40 40 40 39 38 39 39 40 40 38 35 33 33 32 31 30 29 27 26 24
2 1 4 5 4 5 5 4 2 1 2 4 4 5 6 5 6 6 7 10 9 8 6 5 9 9 7 5 7 11 14 13 13 14 6 9 19 23 26 30 32 36 41 44 46 49 51 52 53 52 51 50 49 48 48 47 47 48 47 47 47 46 44 43 42 41 40 41 41 39 38 40 41 40 39 37 35 34 35 33 32 31 29 27 26 24
6 2 1 1 1 3 4 3 3 2 2 4 3 2 3 3 5 5 5 5 5 6 7 7 8 8 6 4 4 11 17 17 16 13 13 8 11 22 25 27 31 35 40 44 47 49 50 50 51 51 50 51 50 49 48 47 47 47 47 47 46 45 44 43 42 41 41 41 41 40 39 41 42 40 38 38 36 36 36 34 33 32 29 27 26 23
4 2 1 3 3 4 5 6 7 5 2 2 2 3 3 3 4 5 5 3 4 5 3 3 4 5 5 4 3 7 11 12 12 9 12 14 4 18 22 23 30 34 36 40 41 42 44 45 46 49 51 51 50 49 48 47 46 46 46 45 45 45 44 43 42 42 41 41 42 41 40 42 43 40 38 38 37 38 38 36 34 32 28 26 26 23
1 1 1 1 2 4 6 7 9 5 3 1 2 0 1 4 4 6 6 5 6 5 3 3 4 7 5 3 2 5 7 7 10 10 11 15 7 11 22 23 27 32 33 35 37 38 40 43 46 48 50 50 50 48 47 47 46 46 44 44 44 45 44 43 43 42 41 42 44 42 41 42 43 41 39 39 39 40 38 36 35 32 28 28 26 22
3 1 1 1 2 3 8 8 6 4 3 2 5 3 4 5 4 6 8 9 9 6 4 6 7 6 5 4 6 6 4 4 8 10 9 11 10 8 22 25 26 29 31 32 35 38 39 42 44 45 47 49 48 46 45 46 45 43 42 42 42 43 43 43 43 43 43 44 46 44 42 43 44 42 40 40 41 40 38 36 34 31 29 29 26 22
3 1 1 1 2 2 5 7 5 2 2 7 6 5 5 3 3 5 7 9 6 7 5 5 8 7 7 7 9 11 10 4 8 11 7 5 13 16 22 29 29 30 32 32 34 35 38 40 41 43 44 45 45 45 45 45 44 42 41 41 41 42 42 42 43 43 44 46 47 45 43 44 45 43 41 41 41 40 38 36 33 30 30 29 26 22
2 1 2 2 2 2 3 4 2 3 8 10 8 6 4 2 4 8 6 4 4 8 7 4 4 7 10 10 10 12 18 13 6 11 17 18 22 25 27 31 32 33 34 35 35 36 38 40 41 41 42 43 44 45 45 45 43 42 41 40 41 41 41 42 42 44 47 48 48 47 46 46 46 44 43 43 42 40 38 36 32 30 31 29 25 22
4 2 2 2 2 1 2 1 3 4 7 8 4 3 4 5 5 5 3 5 6 6 7 7 8 9 6 9 12 12 17 15 8 11 21 18 13 23 32 32 30 32 33 31 32 33 35 37 38 39 41 43 45 45 45 44 44 43 41 41 41 41 41 42 43 45 48 49 49 48 47 46 45 44 44 45 43 40 37 34 32 31 31 30 27 24
4 4 3 1 1 2 2 1 2 4 4 4 4 2 3 3 4 4 3 4 6 8 10 9 8 11 11 6 10 8 8 5 1 7 12 7 5 11 28 31 29 29 29 29 29 30 33 36 38 40 42 44 46 45 45 45 44 42 41 40 40 41 42 43 44 46 48 49 48 47 45 46 46 46 45 44 40 35 33 33 33 33 33 32 28 24
3 1 4 3 1 1 2 1 1 2 4 6 6 7 9 9 5 2 1 3 6 9 13 12 9 9 10 11 11 6 3 2 5 6 6 7 9 5 13 23 27 25 25 26 28 29 32 34 37 41 44 45 45 45 45 44 44 43 41 40 39 40 42 44 45 46 48 50 49 47 48 49 48 45 43 42 35 29 30 33 33 33 34 33 28 25
3 2 2 2 1 2 3 1 2 3 4 6 7 10 18 18 5 4 2 5 7 13 16 13 11 11 12 16 15 5 4 5 7 9 10 10 11 10 9 12 19 23 24 26 28 28 30 34 39 43 45 45 45 45 45 44 44 43 41 40 40 40 41 43 45 45 46 46 47 49 49 48 45 44 43 38 28 24 30 34 34 35 36 34 30 28
1 1 0 2 3 3 3 2 2 3 4 5 8 15 22 18 3 6 4 6 8 18 22 17 15 16 17 18 13 7 9 12 13 15 14 11 11 13 13 14 15 21 24 25 27 30 32 35 39 42 43 44 44 44 45 45 44 43 41 41 41 40 39 39 41 42 43 44 46 48 46 45 45 44 40 33 24 24 31 35 35 36 38 35 33 31
2 3 2 0 1 2 3 2 2 3 3 3 11 20 18 8 1 4 5 7 10 17 22 22 20 20 22 21 16 12 13 14 13 14 14 11 9 8 10 15 18 20 25 25 25 28 31 36 40 42 43 44 44 45 45 44 44 43 42 42 41 39 36 36 37 40 42 43 45 44 43 45 46 41 37 35 29 27 31 36 36 37 38 37 35 33
1 2 3 2 1 0 1 2 2 2 3 6 12 14 7 2 2 5 8 12 14 15 19 23 24 23 25 25 19 14 10 5 2 1 5 6 4 2 6 11 13 15 20 23 23 22 24 29 36 41 44 44 45 45 45 45 45 44 43 43 40 36 35 35 37 40 41 41 43 43 43 44 43 39 40 40 34 29 31 35 37 38 39 39 36 32
2 0 0 2 2 2 2 2 1 3 7 8 8 7 6 9 11 10 9 12 17 20 20 23 26 27 26 23 18 14 13 13 13 9 5 3 4 2 2 5 7 9 13 16 18 19 18 20 26 33 40 44 46 46 46 46 46 44 44 42 38 35 35 36 38 40 40 41 42 42 41 41 41 41 41 39 35 31 32 34 35 38 39 38 35 33
3 1 2 1 1 1 3 4 4 7 13 12 8 10 14 17 17 14 11 11 17 23 23 22 27 29 26 20 14 12 14 15 15 12 8 6 6 4 1 3 6 8 11 14 17 19 19 21 23 26 31 38 44 47 47 47 46 46 45 41 36 35 36 37 39 40 40 39 38 38 39 39 39 38 37 36 35 32 30 31 35 38 39 38 36 34
2 3 1 2 2 2 5 9 9 9 12 10 7 11 15 17 17 17 14 12 15 22 22 23 27 28 23 17 12 11 12 13 13 12 10 8 7 6 4 1 5 8 11 15 17 18 19 22 25 27 29 30 36 42 46 47 47 46 43 38 34 35 38 40 40 40 39 37 34 33 35 36 35 35 34 33 32 30 28 30 35 38 39 38 37 36
1 3 2 2 1 1 3 7 8 7 9 8 9 14 16 16 17 17 15 13 15 19 20 22 27 26 19 13 10 10 10 10 10 10 10 8 7 6 5 2 3 6 8 11 14 15 18 21 25 29 31 29 28 33 38 42 44 41 37 34 34 37 41 42 41 40 38 36 34 33 35 35 34 32 31 30 30 31 31 32 35 38 40 39 38 38
1 4 4 2 2 2 4 6 8 12 13 9 8 12 14 15 17 17 14 10 12 15 18 21 26 25 18 12 10 9 9 8 7 7 7 7 5 3 2 1 1 4 6 8 10 12 17 22 25 26 28 28 27 27 29 34 38 36 32 32 35 38 40 39 38 38 38 37 37 37 36 34 31 28 28 30 32 34 34 35 37 38 38 38 38 38
4 3 2 1 3 4 5 6 8 10 10 7 9 13 13 12 14 15 11 8 6 8 13 18 21 20 15 11 11 11 11 9 7 5 5 6 5 3 2 2 1 3 5 7 10 12 16 21 23 22 23 24 24 25 25 27 31 32 30 31 34 37 38 36 36 37 37 36 35 34 32 28 27 27 29 31 32 33 34 33 33 34 35 37 37 36
3 2 1 1 3 4 5 5 4 3 5 7 11 15 13 10 10 10 9 9 8 7 9 14 16 16 14 11 11 13 13 12 8 5 6 8 8 6 5 4 4 5 6 8 11 13 14 17 18 19 19 20 23 26 26 23 25 28 28 28 30 32 32 32 32 31 31 29 29 30 29 28 28 29 30 31 32 32 32 32 32 33 35 36 37 38
3 1 2 0 1 6 10 11 7 4 6 9 12 13 11 9 7 7 10 10 10 11 13 15 16 16 16 14 13 13 16 16 12 9 9 9 8 7 6 6 7 9 10 10 11 12 11 12 13 15 18 20 22 24 25 23 23 24 25 26 29 28 28 29 30 28 26 27 28 30 30 29 30 32 32 32 33 32 32 33 34 34 34 35 37 39
Wind_Direction
200 199 212 210 223 228 229 226 229 239 244 258 265 256 260 262 266 254 236 229 213 214 216 218 236 239 230 223 218 225 228 222 226 227 194 184 188 188 191 191 189 191 196 196 193 193 195 197 197 197 198 199 201 201 201 202 204 204 203 204 204 206 209 209 208 206 205 206 206 205 202 202 207 211 217 217 215 216 218 220 221 220 222 222 218 217
250 208 230 228 227 231 240 250 251 254 255 259 263 265 263 256 271 279 258 238 217 214 217 214 229 238 231 226 219 220 227 231 228 226 200 186 186 190 194 193 191 193 195 191 189 191 193 194 195 196 197 199 202 204 205 206 206 206 206 207 206 205 207 210 211 209 207 208 207 206 205 204 208 213 216 215 213 216 218 219 220 221 223 222 220 218
281 240 239 237 233 233 238 246 251 254 251 248 253 260 264 261 275 291 284 249 224 219 224 215 225 235 229 223 225 220 221 232 233 231 218 196 185 189 195 194 192 191 188 185 186 188 189 192 194 196 198 201 205 205 206 208 208 207 206 207 207 206 208 211 213 213 211 210 209 209 209 207 210 214 214 214 215 217 217 217 219 222 224 223 220 217
244 243 242 239 235 234 237 241 243 251 253 242 243 244 251 258 253 270 288 266 234 225 230 224 228 236 231 223 225 227 223 227 233 233 228 214 195 192 194 192 191 188 184 182 183 184 187 191 194 196 199 201 204 206 207 207 208 207 206 207 208 208 210 212 214 215 215 213 209 209 211 211 213 214 212 212 216 218 218 217 218 220 222 222 219 216
234 244 243 237 224 224 232 238 236 240 250 243 240 239 243 249 244 242 270 287 283 240 227 228 242 243 226 219 221 227 225 225 228 227 224 218 204 196 195 192 190 188 184 181 181 184 187 190 194 198 199 200 203 208 210 210 210 208 206 208 210 210 212 214 215 215 215 213 208 206 209 211 213 213 212 212 213 216 218 218 218 217 218 218 217 217
254 255 252 245 230 223 225 233 231 225 237 246 239 238 241 246 248 248 258 277 311 266 224 213 233 244 215 210 214 217 220 224 225 219 214 215 205 192 191 192 190 189 187 185 185 186 189 192 196 198 199 201 205 210 213 214 212 209 207 210 211 211 212 215 216 215 214 213 209 206 207 209 210 210 212 214 214 215 217 218 217 214 214 215 217 220
250 254 253 251 244 235 230 232 230 221 227 245 232 232 239 241 244 247 253 259 259 272 245 217 224 236 223 212 210 210 215 221 221 213 209 212 205 190 188 190 187 187 187 186 186 188 190 193 195 197 199 203 208 211 213 212 211 209 208 211 212 211 212 214 215 215 214 213 210 209 209 211 212 211 212 215 216 216 217 216 215 214 214 215 218 221
236 258 255 258 258 246 238 237 230 219 222 243 231 227 234 235 239 240 245 250 241 271 282 262 242 233 228 225 211 206 212 220 220 217 212 206 201 193 188 188 186 186 186 185 186 188 191 194 196 199 202 205 209 210 210 210 209 207 208 210 211 211 212 214 215 215 214 213 211 211 213 215 217 217 217 217 217 217 218 215 215 216 216 217 218 219
236 257 251 257 265 257 244 241 230 218 223 240 232 229 235 237 243 242 239 244 243 256 276 277 267 240 228 228 214 203 207 218 221 220 219 204 196 191 187 187 187 188 190 189 190 191 194 196 199 204 206 206 208 210 211 210 207 206 206 209 211 211 211 213 215 215 214 214 213 213 216 217 217 219 222 222 219 217 217 216 215 215 217 218 217 218
226 250 263 266 266 273 266 256 237 218 222 237 233 233 240 239 246 248 239 239 240 238 251 261 263 252 237 217 208 205 206 212 216 220 220 202 192 188 186 188 188 188 191 192 193 195 197 200 203 207 207 205 207 209 211 209 205 203 204 208 211 211 211 213 215 215 215 215 214 216 218 219 217 218 221 222 220 218 218 217 215 215 218 219 220 221
250 266 278 274 253 261 272 276 270 242 224 227 230 233 245 244 244 252 241 229 235 234 239 248 250 251 255 222 201 207 211 210 209 215 219 197 189 190 189 190 187 187 189 192 194 197 199 203 204 204 204 203 204 207 208 206 204 203 204 208 211 210 211 213 215 215 216 216 215 217 220 221 220 220 222 221 219 219 219 218 217 218 219 221 223 226
263 263 269 257 250 257 269 283 287 269 236 220 219 215 231 249 247 257 244 217 225 235 231 238 246 246 250 244 213 214 217 213 204 198 205 201 194 194 194 194 190 187 190 192 194 196 197 198 199 199 201 201 202 204 206 205 205 204 205 208 210 211 211 213 215 216 217 216 216 218 221 222 222 224 225 223 220 219 220 219 218 218 219 221 223 226
266 245 249 253 251 251 262 282 285 278 241 213 212 196 201 225 230 237 241 219 213 235 233 229 240 245 245 247 223 216 216 211 205 198 196 194 195 197 198 198 196 192 192 192 193 194 194 194 197 199 200 200 203 206 206 205 204 203 205 209 210 211 212 213 215 217 217 216 216 219 221 222 223 225 227 226 224 222 224 223 221 221 221 221 224 227
274 264 242 240 249 234 229 249 266 273 239 201 201 193 190 197 210 225 238 230 208 228 240 232 233 247 256 255 224 214 210 199 203 207 204 201 198 200 201 201 201 197 194 194 193 193 193 195 198 200 200 202 206 206 204 203 204 204 205 209 211 212 213 213 215 217 218 216 217 220 221 222 223 225 227 227 226 227 230 229 226 226 226 225 227 230
243 281 232 208 219 203 209 222 228 246 259 226 200 194 200 195 205 224 221 221 206 218 236 232 226 223 230 241 221 211 208 200 202 208 211 213 209 205 203 201 198 197 195 195 194 193 194 198 200 201 202 205 205 203 200 201 203 204 206 209 211 213 214 214 216 218 218 216 218 220 221 222 223 224 227 228 229 230 234 235 232 229 228 228 230 233
215 259 242 221 233 223 235 244 238 248 261 252 218 196 206 197 199 241 227 210 200 213 230 225 219 221 227 250 238 212 206 202 206 208 208 215 217 211 207 200 194 195 196 195 194 193 196 199 201 203 204 204 202 199 199 202 203 204 206 209 212 215 215 215 217 219 219 217 219 219 220 221 222 224 227 229 228 230 234 237 237 233 228 227 230 232
201 256 281 280 268 257 252 259 262 257 252 274 245 217 224 201 188 242 253 247 192 217 232 219 227 251 249 266 270 223 205 202 208 213 208 209 213 211 209 203 195 194 195 194 193 194 196 199 201 203 203 202 201 200 200 203 205 204 205 208 212 215 215 216 218 220 219 218 219 219 220 221 221 224 227 228 228 229 232 235 237 234 227 224 227 231
182 263 287 277 274 277 274 276 275 253 239 247 250 254 276 194 168 202 253 279 302 227 240 218 220 241 232 249 272 220 202 206 210 215 213 209 207 203 205 203 196 194 195 193 193 195 197 200 202 202 203 203 204 203 203 204 205 204 205 208 212 214 215 216 219 220 219 218 219 219 219 220 222 224 226 227 227 229 231 233 234 230 223 222 226 230
177 266 285 258 249 278 299 294 286 260 234 221 241 328 37 164 184 161 207 249 236 247 277 221 210 220 217 235 256 224 203 210 211 211 212 210 205 200 201 199 193 192 194 192 192 194 197 201 202 201 202 203 203 203 203 204 203 203 206 210 214 217 216 216 217 217 218 219 220 219 219 220 222 224 225 225 225 228 231 233 232 227 222 222 226 229
118 136 287 280 256 295 313 259 241 279 253 221 278 326 121 190 205 183 212 241 207 225 299 245 213 223 220 216 237 236 219 213 211 208 210 207 200 197 197 195 191 190 191 190 190 194 198 202 203 202 202 202 202 201 202 202 202 203 206 211 215 216 215 215 215 215 216 218 219 219 218 220 222 222 223 223 223 226 228 230 229 226 224 224 226 227
73 102 256 292 333 6 293 216 189 213 211 172 243 231 188 209 256 244 236 234 215 187 253 266 251 248 238 210 224 241 233 214 204 198 204 200 191 192 192 191 191 190 189 190 191 195 200 202 201 200 201 202 200 200 201 202 203 204 207 211 214 215 214 214 214 214 216 217 217 218 218 219 220 220 221 220 222 225 227 227 225 224 226 226 226 224
129 143 232 297 325 324 251 263 279 251 216 186 200 200 182 193 233 275 262 233 232 207 179 260 273 265 249 202 212 246 245 228 215 196 199 198 185 185 187 190 191 190 188 189 192 197 200 199 198 197 198 198 196 197 200 202 203 205 207 211 214 214 214 214 213 214 216 216 216 217 217 218 218 219 220 219 221 225 226 224 222 223 226 225 224 225
118 118 147 282 274 257 266 275 284 285 270 236 221 187 150 184 211 246 265 249 249 227 189 243 279 277 260 209 204 232 241 239 227 199 201 217 201 189 187 189 189 188 189 191 194 197 197 195 195 196 197 197 196 198 201 202 204 205 208 211 213 213 213 213 213 213 214 215 215 215 217 219 219 218 219 219 219 222 223 221 221 223 224 223 222 224
84 102 203 281 281 270 276 278 277 280 263 206 247 149 121 225 236 233 252 247 256 253 173 226 278 270 275 305 235 231 233 244 238 208 206 227 222 203 191 188 187 186 189 191 193 194 192 191 193 195 196 196 197 199 202 204 205 205 208 211 213 213 213 212 212 213 213 214 214 215 217 220 220 217 217 219 220 223 222 219 220 221 220 220 221 225
150 145 184 280 309 305 293 280 275 296 355 158 231 190 167 228 261 288 296 281 268 251 164 181 262 254 276 343 335 271 249 250 253 225 214 221 223 212 197 189 186 185 186 188 189 187 187 189 193 194 196 197 198 200 202 203 204 204 207 210 212 213 213 212 212 212 213 213 213 215 216 218 218 216 216 218 223 225 221 217 218 218 217 218 221 226
162 175 171 196 181 143 157 180 201 259 312 290 241 190 216 254 261 262 300 294 275 269 205 206 243 269 298 323 333 325 299 269 270 244 219 220 218 209 199 189 184 182 181 182 183 184 187 191 193 195 197 198 199 200 201 202 203 204 206 209 212 212 212 211 211 212 212 212 213 214 215 216 216 216 216 221 225 224 219 217 218 216 215 218 222 226
139 194 195 210 198 169 179 206 205 191 230 289 300 331 306 279 271 246 122 281 257 248 254 235 233 278 304 316 327 330 325 305 285 248 206 210 212 202 192 184 179 178 178 178 180 183 187 190 192 195 197 198 199 200 201 202 204 205 206 207 210 211 210 210 210 210 211 211 213 215 216 216 215 216 219 223 222 219 217 219 218 215 215 219 223 228
163 221 211 221 228 226 213 218 229 207 206 245 266 271 254 265 275 254 223 246 225 202 249 253 258 288 290 307 325 321 319 320 308 284 212 194 195 189 181 176 174 174 175 177 180 184 187 189 192 195 197 197 197 198 200 203 204 205 205 206 208 209 209 209 209 210 211 211 214 215 216 215 215 217 219 219 217 216 218 218 217 215 216 220 226 229
156 219 206 204 225 239 234 231 237 222 226 242 228 230 236 244 261 248 246 252 227 197 229 252 284 292 270 290 314 310 305 306 309 310 259 186 180 173 168 168 169 171 173 177 181 184 187 189 192 194 195 195 195 196 198 200 202 203 203 205 207 208 208 208 208 209 210 211 213 216 216 215 215 215 215 214 214 216 217 217 216 215 217 222 227 228
234 297 217 199 216 248 250 251 252 65 320 275 228 222 229 237 250 244 249 257 239 218 222 259 290 289 263 270 299 299 302 316 325 330 351 152 164 162 160 164 167 170 174 179 183 185 188 191 193 194 194 194 195 196 197 199 200 202 203 204 206 207 207 208 209 210 210 211 213 215 216 215 213 213 214 214 215 217 216 214 214 215 217 222 226 225
227 244 241 166 7 308 300 321 356 11 267 246 234 240 260 288 290 269 253 261 260 245 232 242 272 280 261 247 271 292 308 330 340 345 10 40 147 158 157 161 166 172 177 180 184 186 188 190 192 192 193 194 196 197 198 200 201 202 203 204 206 207 207 209 211 211 211 212 213 214 215 214 212 213 215 216 216 216 214 213 213 214 217 222 223 223
215 205 25 40 21 299 303 339 329 310 251 222 316 4 356 329 299 277 270 271 278 265 230 221 261 269 279 278 270 296 318 335 333 337 10 14 78 147 149 159 167 172 178 181 183 185 186 189 191 192 194 195 196 197 200 201 202 201 203 206 208 208 208 210 212 213 212 213 214 215 215 214 212 213 215 214 215 214 213 212 212 214 218 224 224 223
213 116 108 59 29 287 300 323 313 319 52 22 287 78 322 294 277 281 292 287 261 238 146 113 248 254 260 246 259 310 328 329 316 329 5 356 338 151 149 156 167 172 178 181 182 185 188 191 193 195 196 197 198 201 204 205 205 205 207 210 210 208 209 210 212 213 213 212 214 215 214 213 213 214 214 214 213 213 212 211 212 215 222 227 225 225
317 50 136 125 94 286 302 321 333 30 74 232 228 210 272 276 261 274 283 278 273 264 217 185 199 236 248 194 197 228 235 261 293 316 351 341 306 200 161 160 167 172 177 181 183 187 191 193 196 197 198 200 202 204 207 209 209 210 210 210 209 208 208 209 210 212 212 211 211 212 213 213 213 214 215 214 211 210 211 213 214 218 226 227 223 224
311 21 99 59 78 287 320 351 14 42 241 258 274 292 284 233 216 279 272 257 283 331 319 221 190 211 229 218 214 200 180 201 290 302 305 245 238 222 180 169 174 176 179 184 186 190 194 195 197 199 200 202 204 205 206 208 209 210 209 208 208 207 208 209 209 210 211 209 209 211 213 213 212 213 214 212 210 210 212 213 215 222 227 225 222 227
219 153 119 45 359 329 7 22 359 268 281 297 311 313 311 37 20 350 334 285 322 5 352 306 253 235 216 213 225 189 166 169 218 266 265 246 231 221 194 178 182 185 185 191 194 197 200 202 204 206 207 207 207 207 208 209 209 209 207 206 206 208 209 209 209 209 209 209 210 212 213 212 210 211 211 210 208 209 209 211 217 225 227 222 221 229
170 152 103 38 351 20 39 305 269 296 314 318 341 37 33 28 355 337 318 285 311 356 359 345 335 317 274 220 221 193 165 163 177 236 254 260 240 212 196 183 182 186 187 192 197 201 205 208 211 213 213 211 210 210 211 209 208 207 204 203 205 207 208 209 210 209 207 207 209 210 211 212 211 210 208 205 204 207 210 214 221 227 227 221 220 226
168 175 148 118 40 80 61 309 311 342 319 279 280 333 25 10 294 267 233 266 303 345 355 352 342 331 326 282 243 217 162 150 234 237 239 282 341 206 196 187 183 186 190 193 198 203 207 210 213 215 215 213 212 212 212 208 205 203 202 202 204 207 208 209 211 210 207 205 208 211 213 213 211 209 206 203 203 210 218 222 224 226 225 220 220 227
72 80 114 109 108 107 99 93 311 294 253 256 291 319 329 321 293 212 169 270 300 339 351 350 340 330 333 325 302 279 172 179 262 253 251 301 329 294 208 196 193 196 201 203 205 208 211 213 215 215 214 214 213 212 210 206 203 201 202 203 204 206 209 210 212 212 208 205 206 212 215 212 207 207 208 206 207 218 226 225 224 225 222 218 220 229
85 23 53 95 168 160 138 165 230 234 260 292 315 317 314 314 322 120 160 257 289 325 338 342 332 324 331 338 336 319 194 201 238 263 285 294 294 300 289 241 215 211 214 214 214 217 218 216 214 213 213 214 214 213 209 205 202 202 203 204 203 206 211 212 213 213 211 207 206 208 209 208 207 209 209 207 211 224 228 225 224 224 220 216 217 224
108 323 303 158 175 168 166 214 261 259 266 289 305 308 310 315 352 130 200 249 292 316 326 331 323 324 335 341 343 323 280 270 262 268 284 291 281 282 291 285 256 229 219 219 221 223 223 220 217 216 217 217 215 212 208 204 202 203 204 204 204 208 213 214 213 214 213 211 209 207 207 206 208 210 209 210 219 227 225 223 225 224 220 216 216 221
356 322 319 101 174 171 173 208 277 280 249 277 307 312 318 327 139 190 260 299 315 315 322 327 323 328 338 337 336 336 312 288 270 272 284 290 283 270 267 275 266 236 219 218 220 222 222 222 219 217 216 215 213 211 208 204 203 203 205 205 207 210 213 214 214 214 214 212 209 207 207 207 208 210 211 212 215 220 222 222 224 224 220 216 216 220
334 304 331 338 288 345 14 331 326 301 299 322 321 320 337 32 266 282 306 324 332 331 330 329 327 335 341 336 341 0 360 353 52 323 299 301 300 235 236 258 257 234 221 219 217 217 217 216 215 213 211 211 210 209 208 205 204 204 206 207 208 210 212 213 213 213 213 213 211 208 207 207 208 211 212 209 209 216 221 222 221 221 218 215 215 219
43 6 320 332 328 27 3 306 257 248 276 295 303 299 314 321 316 319 324 325 335 344 341 331 331 341 344 335 343 11 24 33 52 68 74 45 37 73 210 245 244 236 233 228 226 226 222 213 209 208 209 209 208 208 207 205 205 205 206 206 207 209 210 213 214 212 211 213 214 212 208 207 208 211 212 211 212 217 221 222 221 220 218 216 216 219
31 16 203 237 290 183 218 239 247 272 281 285 286 288 302 315 323 328 323 319 336 345 343 333 336 347 350 340 346 22 31 29 41 58 72 66 52 54 69 256 253 244 240 237 237 236 232 222 212 206 207 208 207 206 207 206 207 206 204 203 205 207 208 209 210 210 208 209 212 216 213 208 205 209 214 216 217 219 222 224 222 218 217 217 217 220
344 3 314 212 218 233 243 240 242 266 281 287 310 324 321 320 326 331 327 324 338 342 338 338 346 353 352 343 353 32 39 31 38 54 67 75 70 69 84 237 256 248 243 243 241 238 234 228 218 210 208 207 204 203 204 205 207 206 202 201 204 206 206 206 207 207 206 206 209 215 215 209 207 211 216 218 220 223 227 228 224 220 219 219 220 223
320 16 339 255 219 301 271 243 240 274 298 306 328 338 336 330 327 331 332 328 326 324 328 345 357 357 352 347 359 29 42 38 37 45 57 71 78 83 96 138 233 243 247 249 245 239 232 224 216 209 206 206 205 204 202 201 203 203 201 200 203 204 202 202 203 203 203 204 207 211 212 210 209 213 216 217 220 223 225 225 224 221 220 220 222 224
328 12 346 300 245 249 265 266 281 300 309 321 335 331 329 330 329 332 338 330 311 309 326 351 0 357 355 0 6 17 39 46 37 35 47 60 72 89 101 106 227 241 247 244 239 234 225 219 214 209 205 205 208 211 209 203 201 201 201 202 203 202 199 199 202 202 203 204 206 207 207 208 211 216 218 219 221 222 222 221 222 223 224 227 229 229
282 320 315 314 315 293 279 292 307 309 309 328 347 337 329 328 330 333 340 344 332 320 329 345 356 2 9 18 15 20 37 46 37 35 52 66 80 105 119 107 152 202 219 218 213 213 213 213 214 215 212 208 207 210 213 209 203 201 201 202 200 198 196 197 200 202 201 202 203 204 205 209 216 221 222 221 221 223 224 226 227 229 231 233 235 236
259 264 230 48 353 306 288 308 324 316 291 300 324 334 328 315 321 338 353 0 9 9 349 348 359 12 27 34 21 22 39 48 44 47 68 84 94 105 113 111 128 162 183 188 186 189 196 202 208 217 217 212 211 211 212 213 207 198 196 199 200 197 196 198 200 200 201 203 206 209 210 213 218 222 222 221 220 222 225 228 232 234 235 235 236 238
224 227 280 312 227 257 278 300 310 287 268 285 309 324 319 306 318 2 15 4 355 358 3 5 7 14 29 33 18 21 44 55 56 58 66 78 90 97 108 119 136 159 174 176 171 172 179 185 195 205 206 205 209 211 210 208 202 191 188 195 199 199 199 199 199 201 207 213 217 217 214 215 219 221 220 221 222 225 228 229 230 231 233 235 237 239